Other Public Products
Issued by NWS Grand Forks, ND

Home | Current Version | Previous Version | Graphics & Text | Print | Product List | Glossary On
Versions: 1 2 3 4 5 6 7 8 9 10 11 12 13 14 15 16 17 18 19 20 21 22 23 24 25 26 27 28 29 30 31 32 33 34 35 36 37 38 39 40 41 42 43 44 45 46 47 48 49 50
000
FPUS83 KFGF 292231
OPUFGF
PRAIRIE TO PINES WEATHER ROUNDUP
NATIONAL WEATHER SERVICE EASTERN NORTH DAKOTA/GRAND FORKS ND
500 PM CDT SUN MAY 29 2016

 **SATELLITE DATA USED TO AUGMENT SKY COVER AT AUTOMATED STATIONS**
 *****  WEATHER ACROSS EASTERN NORTH DAKOTA  *****

CITY           SKY/WX    TMP DP  RH WIND       PRES   REMARKS
GRAND FORKS    MOSUNNY   75  45  34 W16       29.91S
GRAND FORKS AF MOSUNNY   75  43  31 W14       29.92S
GRAND CITY NWS   N/A     73 N/A N/A N14         N/A
BUXTON           N/A     77  42  28 NW15G26     N/A
DEVILS LAKE    MOSUNNY   73  40  30 W12       29.95S
FARGO          MOSUNNY   79  44  28 NW14G20   29.93F
WAHPETON ARPT  PTCLDY    77  37  24 NW10G21   29.95F
$$

 *****  WEATHER ACROSS CENTRAL AND WESTERN NORTH DAKOTA  *****

CITY           SKY/WX    TMP DP  RH WIND       PRES   REMARKS
JAMESTOWN      MOSUNNY   75  44  33 NW18G25   29.95F
BISMARCK       SUNNY     79  43  27 NW6       29.95F
MINOT          MOSUNNY   75  38  26 W12       29.95S
MINOT AFB      SUNNY     74  39  28 NW12G22   29.93F
GARRISON         N/A     76  43  30 W10       29.96F
WILLISTON      SUNNY     78  34  20 SW14G25   29.94F
DICKINSON      MOSUNNY   76  31  19 W10G24    29.95F
HETTINGER      CLOUDY    74  46  36 NW6       29.99F
$$

 *****  OTHER OBSERVATIONS NORTHEAST NORTH DAKOTA  *****

CITY           SKY/WX    TMP DP  RH WIND       PRES   REMARKS
WALHALLA       FAIR      72  68  88 NW12      29.91S
LANGDON        FAIR      72  46  40 NW12G20   29.93S
CAVALIER       FAIR      72  48  43 NW8G16    29.90F
GRAFTON        FAIR      72  52  49 NW8G15    29.93S
CANDO          FAIR      72  39  30 W14       29.96S
FORT TOTTEN      N/A     75  45  34 NW6       29.95S
ROLLA          FAIR      72  36  26 W15       29.94F
RUGBY          FAIR      73  37  27 W16       29.94S
 ***** THE ABOVE OBSERVATIONS ARE NON NWS ARE NOT QUALITY
        CONTROLLED AND MAY MIS-REPORT RAIN FOR SNOW...
$$

 *****  OTHER OBSERVATIONS SOUTHEAST NORTH DAKOTA *****

CITY           SKY/WX    TMP DP  RH WIND       PRES   REMARKS
COOPERSTOWN    NOT AVBL
VALLEY CITY    FAIR      75  39  27 W17G24    29.97F
OAKES            N/A    N/A N/A N/A MISG        N/A
GWINNER        FAIR      77  46  33 NW10G22   29.96F
SHEYENNE NWR     N/A     77  44  30 NW13      29.95S
BUFFALO          N/A     76  35  22 W13         N/A
WYNDMERE         N/A     81  43  26 NW17        N/A
 ***** THE ABOVE OBSERVATIONS ARE NON NWS ARE NOT QUALITY
       CONTROLLED AND MAY MIS-REPORT RAIN FOR SNOW...
$$

  *****  WEATHER ACROSS NORTHERN MINNESOTA  *****

CITY           SKY/WX    TMP DP  RH WIND       PRES   REMARKS
FLAG ISLAND    PTSUNNY   64  54  68 W15       29.86S
WARROAD        PTSUNNY   66  57  72 W8        29.89S
ROSEAU         SUNNY     70  57  64 W14G22    29.89F
HALLOCK        MOSUNNY   73  52  46 NW12G20   29.90S
THF RVR FALLS  MOSUNNY   70  54  56 NW12      29.93F
HALSTAD        NOT AVBL
FOSSTON        PTSUNNY   70  52  52 NW9       29.94F
BAUDETTE       NOT AVBL
WASKISH        MOSUNNY   68  59  73 SW9       29.90F
CROOKSTON      MOSUNNY   73  50  43 NW13      29.92F
$$
  *****  WEATHER ACROSS CENTRAL AND WEST MINNESOTA  *****

CITY           SKY/WX    TMP DP  RH WIND       PRES   REMARKS
BEMIDJI        PTSUNNY   70  55  57 NW15      29.93S
PARK RAPIDS    PTSUNNY   68  50  52 W10       29.95S
WADENA         MOSUNNY   72  54  53 W12       29.94F
DETROIT LAKES  MOSUNNY   72  55  56 NW10      29.96F
MOORHEAD       MOSUNNY   73  46  38 NW16      29.94F
FERGUS FALLS   PTSUNNY   75  46  35 NW16G26   29.91F
ELBOW LAKE     FAIR      76  50  41 NW15G22   29.96F
MORRIS MN      MOSUNNY   75  46  35 NW22      29.95F
STAPLES        PTSUNNY   73  50  43 W12G20    29.94S
WHEATON        SUNNY     79  46  31 W16G28    29.97F
$$
  *****  WEATHER ELSEWHERE ACROSS MINNESOTA  *****

CITY           SKY/WX    TMP DP  RH WIND       PRES   REMARKS
DULUTH         MOSUNNY   69  53  56 NW17G26   29.89S
INTRNTL FALLS  PTSUNNY   64  55  72 W10       29.88S
ELY            PTSUNNY   63  54  72 NW13G22   29.87S
CLOQUET        MOSUNNY   70  54  56 W12       29.90F
BRAINERD       SUNNY     73  52  47 NW12      29.93F
HIBBING        CLOUDY    64  53  67 NW15G22   29.91R
ALEXANDRIA     PTSUNNY   72  52  49 NW9       29.97F
SAINT CLOUD    PTSUNNY   76  56  49 NW17      29.94S
MINNEAPOLIS    MOSUNNY   78  54  43 W16G24    29.93F
$$

  *****  WEATHER ACROSS SOUTH DAKOTA  *****

CITY           SKY/WX    TMP DP  RH WIND       PRES   REMARKS
SIOUX FALLS    MOSUNNY   79  50  36 NW8       30.02F
BROOKINGS      SUNNY     76  50  40 NW16      30.02F
WATERTOWN      SUNNY     77  45  32 NW10      30.01F
HURON          SUNNY     78  50  37 SW7       30.00F
SISSETON         N/A     79  40  24 NW20G26   29.95F
ABERDEEN       MOSUNNY   81  46  29 NW10G17   29.98F
MITCHELL       SUNNY     79  49  34 NE3       30.02F
PIERRE         SUNNY     77  50  38 SE5       29.99F
MOBRIDGE       HVY RAIN  63  53  70 SW15G29   30.00R
RAPID CITY     MOSUNNY   70  55  59 S6        30.00F
$$

  *****  SOME WEATHER IN NEARBY STATES *****

CITY           SKY/WX    TMP DP  RH WIND       PRES   REMARKS
GLASGOW MT     SUNNY     74  37  26 W14G25    29.93F
GREAT FALLS MT PTSUNNY   71  33  24 W17G23    29.95S
CHEYENNE WY    CLOUDY    64  37  36 N16G24    30.13S
SCOTTSBLUFF NE PTSUNNY   76  44  32 S7        30.03F
OMAHA NE       MOSUNNY   86  57  37 NW5       30.00F
DES MOINES IA  MOSUNNY   83  52  34 W7        30.02F
DAVENPORT IA   MOSUNNY   81  56  42 W15G24    30.02F
CHICAGO IL     MOSUNNY   77  58  51 W16G22    29.98F
EAU CLAIRE WI  MOSUNNY   75  54  47 W17G25    29.93R
LA CROSSE WI   PTSUNNY   76  59  55 NW13      29.93F
$$

  *****  SOME NATIONAL WEATHER *****

CITY           SKY/WX    TMP DP  RH WIND       PRES   REMARKS
LA GUARDIA NY  PTSUNNY   76  71  85 S20       30.06F
RALEIGH NC     LGT RAIN  70  66  88 NW5       30.03F
ATLANTA GA     MOSUNNY   89  57  33 NW8       30.03F
NEW ORLEANS LA PTSUNNY   89  65  44 NE7       30.04F HX  91
OKLAHOMA CITY  MOSUNNY   87  56  34 VRB5      30.02F
ALBUQUERQUE NM MOSUNNY   85  14   7 S13G24    30.05F
SALT LAKE CITY PTSUNNY   76  38  25 SE13      30.01F
LOS ANGELES CA MOSUNNY   66  54  65 W14       29.99F
BOISE ID       CLOUDY    82  31  15 NW12      29.95F
SEATTLE WA     PTSUNNY   62  47  57 N14       30.18S
$$

*** WEATHER ACROSS MANITOBA...SASKATCHEWAN AND ONTARIO ***
                ***ONTARIO***

CITY           SKY/WX    TMP DP  RH WIND       PRES   REMARKS
GERALDTON      LGT RAIN  55  55 100 N7        29.73S VSB 1
THUNDER BAY    LGT RAIN  59  59 100 E5        29.75S
SIOUX LOOKOUT  CLOUDY    57  52  82 NW10      29.81S
TORONTO        CLOUDY    81  63  54 SW14      29.93F
BIG TROUT LK   LGT RAIN  46  41  81 NE9G20    29.91S
PICKLE LAKE    DRIZZLE   48  46  93 N3        29.80S FOG
DRYDEN         LGT RAIN  57  54  88 W12G21    29.82S FOG
KENORA         PTSUNNY   59  54  82 W10G20    29.87S
$$
                *** MANITOBA***

CITY           SKY/WX    TMP DP  RH WIND       PRES   REMARKS
BRANDON        MOSUNNY   72  45  37 W17       29.90S
DAUPHIN        SUNNY     66  52  59 VRB6      29.88F
ISLAND LAKE    CLOUDY    59  50  72 SE5       29.91S
PILOT MOUND      N/A     70  48  46 W8          N/A
THE PAS        DRIZZLE   50  46  87 NE3       29.93S
THOMPSON       CLOUDY    52  48  87 NE6       29.96F
WINNIPEG       MOSUNNY   68  54  60 W13G23    29.89F
LYNN LAKE      CLOUDY    50  46  87 E9        29.99S
CHURCHILL      PTSUNNY   34  30  86 E15       30.18F WCI  24
GILLAM         CLOUDY    48  41  76 NE10      30.03F
$$
                ***SASKATCHEWAN***

CITY           SKY/WX    TMP DP  RH WIND       PRES   REMARKS
ESTEVAN        MOSUNNY   73  46  38 W12G20    29.92F
KINDERSLEY     PTSUNNY   68  32  26 VRB3      29.85F
LLOYDMINSTER   PTSUNNY   66  46  48 E12       29.87F
PRINCE ALBERT  CLOUDY    57  50  77 E6        29.89R
REGINA         MOSUNNY   70  39  32 SW14G22   29.89F
YORKTON        PTSUNNY   68  48  49 N7G18     29.87R   C1F1C2F2C3F3C4F4C5F5C6F6C7F7C8F8C9F9CaFaCbFbCcFcCdFdCe!



USA.gov is the U.S. government's official web portal to all federal, state and local government web resources and services.